STARLINK-1276, 45368

Orbit data source: Space-Track

STARLINK-1276, 45368 is a payload satellite owned by SpaceX/Seattle (US) in LEO that was launched on Wed, 18 Mar 2020 UTC via an FALCON 9 launch vehicle from the Air Force Eastern Test Range (AFETR). Payload-class satellites include a variety of spacecraft equipped with specific instruments for various scientific and technological missions. These include communications satellites like Starlink; space stations such as the ISS; scientific satellites like the Hubble; Earth observation satellites from companies like Planet Labs, Umbra, and HawkEye 360; GPS; miniature CubeSats for education and research; and military/defense satellites.

Loading next visibility...
Identifier
45368, 2020-019J
Orbit
LEO
Country
Flag of USUS
Related business
Manufacturer
SpaceX/Seattle
Mission
Operational Commercial Communications
Bus & Motor
STARLINK, Unknown motor
Mass
260 kg wet, ~248 kg dry
Launch date (UTC)
2020-03-18 (6 years ago)
Launch vehicle
FALCON 9
Launch site
Air Force Eastern Test Range (AFETR)
Object type
Payload
Rocket body
Debris
Shape & HBR
Box + 1 Pan, 10.1 m
Radar Cross Section
13.562 m², Large (>1 m²)

Expand to show TLE details & history
Last TLE update: 10 hours ago

TLE from 10 hours ago
0 STARLINK-1276
1 45368U 20019J   26036.77181032 -.00000543  00000-0 -17594-4 0  9998
2 45368  53.0545 309.9040 0001028  76.1855 283.9248 15.06411744324927
Epoch: 2026-02-05T18:31Z
TLE epoch observation values (Epoch: 2026-02-05T18:31:24.411Z)
Latitude
-0.00006°
Longitude
-103.86701°
Altitude
547.883 km
Speed
7.589 km/s
True Right ascension
20h 39m 36s
True Declination
0° 00' 00"
Sunlit
Object was in daylight at epoch
Visualization orbit readout
Latitude
Unknown
Longitude
Unknown
Altitude
Unknown
Speed
Unknown
Apparent Right ascension
Unknown
Apparent Declination
Unknown
Sunlit
N/A
Visualization observer readout
Local Sidereal Time
06:29:23
Azimuth
Unknown
Elevation
Unknown
Doppler factor
Unknown
Orbital elements
Apogee altitude
548.158 km
Perigee altitude
546.734 km
Semi-major axis
6,925.583 km
Eccentricity
0.0001
Inclination
53.0545°
RAAN
309.904°
Arg. of periapsis
76.1855°
True anomaly
283.91337°
Mean anomaly
283.9248°
Eccentric anomaly
283.91908°
Mean motion
3.76581 °/min
Orbital period
95.6 mins
BSTAR
-0.000017594
Loading maneuver chart data...
Computing Atmospheric mass density...
Loading historical data...
Loading historical data...
Loading historical data...
Loading historical data...
Loading historical data...
Loading historical data...
Loading historical data...

Documentation

Showing up to 5 results
|